Weather reports worldwide

Advertisment
Woensdrecht, Netherlands (6340): temperature & dewpoint: 22.01.2020 07:00:00 - 28.01.2020 07:00:00 (CET)Woensdrecht, Netherlands (6340): temperature 5cm: 22.01.2020 07:00:00 - 28.01.2020 07:00:00 (CET)Woensdrecht, Netherlands (6340): wind speed & gusts: 22.01.2020 07:00:00 - 28.01.2020 07:00:00 (CET)Woensdrecht, Netherlands (6340): wind direction: 22.01.2020 07:00:00 - 28.01.2020 07:00:00 (CET)Woensdrecht, Netherlands (6340): reduced air pressure: 22.01.2020 07:00:00 - 28.01.2020 07:00:00 (CET)Woensdrecht, Netherlands (6340): visibility: 22.01.2020 07:00:00 - 28.01.2020 07:00:00 (CET)Woensdrecht, Netherlands (6340): precipitation: 22.01.2020 07:00:00 - 28.01.2020 07:00:00 (CET)
Date & Time tt [°C] td [°C] tt 5cm [°C] ff [km/h] ff [kn] fx [km/h] fx [kn] dd ppp [hPa] vv [km] rr [mm]
28.01.2020 07:00:00 4,4 2,8 4,2 41 22 61 33 SW 989,4 10 1,0
28.01.2020 06:00:00 7,1 3,8 6,4 18 10 36 19 SSW 989,2 10 0,0
28.01.2020 05:00:00 7,1 4,3 6,7 22 12 40 21 SW 990,5 10 0,0
28.01.2020 04:00:00 6,6 4,4 5,7 16 9 36 19 SSW 991,8 10 0,0
28.01.2020 03:00:00 6,0 4,5 5,5 18 10 36 19 SW 993,1 10 0,2
28.01.2020 02:00:00 5,9 4,4 5,7 24 13 47 25 WSW 993,7 10 1,1
28.01.2020 01:00:00 7,2 5,3 6,8 21 11 40 21 SW 993,7 10 0,0
28.01.2020 00:00:00 7,4 5,2 7,1 22 12 47 25 SW 993,9 10 0,0
27.01.2020 23:00:00 8,1 5,6 7,7 34 18 50 27 WSW 993,7 10 0,1
27.01.2020 22:00:00 7,7 6,6 7,3 18 10 40 21 S 993,9 10 1,7
27.01.2020 21:00:00 7,9 6,7 7,7 13 7 29 16 S 995,5 9 1,1
27.01.2020 20:00:00 8,4 6,6 8,1 13 7 29 16 S 997,2 10 0,0
27.01.2020 19:00:00 8,2 6,3 7,5 13 7 22 12 S 999,0 10 0,0
27.01.2020 18:00:00 8,3 7,3 7,9 11 6 22 12 S 1000,3 10 0,0
27.01.2020 17:00:00 8,5 7,2 8,4 11 6 22 12 SSW 1001,5 7 0,4
27.01.2020 16:00:00 9,4 6,6 9,3 13 7 29 16 SW 1002,4 10 0,0
27.01.2020 15:00:00 9,3 6,2 9,2 18 10 29 16 SW 1003,0 10 0,0
27.01.2020 14:00:00 9,3 6,5 9,4 18 10 29 16 SW 1003,7 10 0,0
27.01.2020 13:00:00 9,2 7,0 9,4 15 8 32 18 SW 1004,8 10 0,0
27.01.2020 12:00:00 9,2 6,8 9,4 21 11 32 18 SW 1005,8 10 0,0
27.01.2020 11:00:00 9,3 7,0 9,4 13 7 22 12 SW 1006,2 10 0,0
27.01.2020 10:00:00 8,8 7,0 8,6 16 9 32 18 SW 1006,4 10 0,0
27.01.2020 09:00:00 9,2 6,9 8,7 18 10 29 16 SSW 1006,7 10 0,0
27.01.2020 08:00:00 8,9 7,0 8,4 13 7 32 18 SSW 1006,9 10 0,0
27.01.2020 07:00:00 9,0 7,4 8,6 13 7 36 19 SSW 1007,1 10 0,1
27.01.2020 06:00:00 8,7 7,8 8,5 21 11 40 21 SSW 1007,3 5 0,4
27.01.2020 05:00:00 8,6 7,6 8,3 15 8 32 18 SSW 1007,6 6 0,6
27.01.2020 04:00:00 8,3 7,6 8,2 18 10 36 19 SSW 1008,0 5 0,3
27.01.2020 03:00:00 8,3 7,2 8,1 22 12 47 25 SSW 1008,4 5 0,0
27.01.2020 02:00:00 8,2 7,0 7,9 16 9 43 23 SSW 1008,8 10 0,9
27.01.2020 01:00:00 7,9 6,6 7,6 18 10 40 21 S 1009,5 10 0,6
27.01.2020 00:00:00 7,9 5,6 7,5 16 9 36 19 SSW 1010,0 10 0,0
26.01.2020 23:00:00 7,5 5,7 7,1 16 9 32 18 S 1010,4 10 0,3
26.01.2020 22:00:00 7,9 5,1 7,5 16 9 32 18 SSW 1011,4 10 0,0
26.01.2020 21:00:00 7,8 4,7 7,3 15 8 32 18 S 1011,9 10 0,0
26.01.2020 20:00:00 7,4 4,2 6,6 11 6 32 18 S 1012,2 10 0,0
26.01.2020 19:00:00 7,6 4,5 6,9 16 9 40 21 SW 1012,6 10 0,0
26.01.2020 18:00:00 8,8 5,7 8,4 18 10 29 16 SSW 1012,8 10 0,0
26.01.2020 17:00:00 9,1 5,8 8,6 15 8 29 16 SSW 1012,7 10 0,0
26.01.2020 16:00:00 9,6 5,9 9,5 16 9 32 18 SSW 1013,0 10 0,0
26.01.2020 15:00:00 9,8 6,1 9,9 15 8 29 16 S 1013,2 10 0,0
26.01.2020 14:00:00 9,5 5,8 10,1 11 6 22 12 S 1013,6 10 0,0
26.01.2020 13:00:00 8,9 5,5 9,7 13 7 22 12 S 1014,3 10 0,0
26.01.2020 12:00:00 7,5 4,9 8,4 13 7 22 12 SW 1015,2 10 0,0
26.01.2020 11:00:00 6,6 4,3 7,0 9 5 14 8 S 1015,4 9 0,0
26.01.2020 10:00:00 4,0 2,9 3,5 4 2 11 6 - 1015,7 9 0,0
26.01.2020 09:00:00 2,4 2,0 1,6 4 2 11 6 - 1015,6 7 0,0
26.01.2020 08:00:00 2,5 2,2 2,0 5 3 14 8 SSE 1015,4 8 0,0
26.01.2020 07:00:00 2,7 2,3 2,5 8 4 14 8 SE 1015,6 8 0,0
26.01.2020 06:00:00 2,6 2,1 2,5 5 3 11 6 SE 1015,8 6 0,0
26.01.2020 05:00:00 2,4 2,1 2,3 5 3 14 8 SE 1016,0 5 0,0
26.01.2020 04:00:00 2,1 1,9 2,0 8 4 14 8 SE 1016,3 4,5 0,0
26.01.2020 03:00:00 1,9 1,9 1,9 5 3 11 6 ESE 1017,0 2,4 0,0
26.01.2020 02:00:00 2,0 2,0 2,1 5 3 14 8 ESE 1017,5 1,6 0,0
26.01.2020 01:00:00 1,9 1,9 2,1 5 3 14 8 ESE 1018,3 0,6 0,0
26.01.2020 00:00:00 2,0 2,0 2,2 5 3 18 10 ESE 1018,6 0,6 0,0
25.01.2020 23:00:00 2,1 2,1 2,3 9 5 14 8 ESE 1019,0 0,6 0,0
25.01.2020 22:00:00 2,1 2,0 2,3 8 4 14 8 ESE 1019,4 0,6 0,0
25.01.2020 21:00:00 2,1 2,1 2,2 5 3 14 8 ESE 1019,8 0,6 0,0
25.01.2020 20:00:00 1,8 1,8 2,0 5 3 11 6 E 1020,2 0,6 0,0
25.01.2020 19:00:00 1,5 1,1 1,7 8 4 14 8 E 1020,3 2,4 0,0
25.01.2020 18:00:00 1,6 0,8 1,7 8 4 14 8 E 1020,1 4,0 0,0
25.01.2020 17:00:00 2,0 0,8 2,3 5 3 14 8 SSE 1020,2 5 0,0
25.01.2020 16:00:00 2,6 1,3 3,1 8 4 14 8 ESE 1020,5 5 0,0
25.01.2020 15:00:00 2,8 1,2 3,6 5 3 11 6 S 1020,7 5 0,0
25.01.2020 14:00:00 2,4 0,9 2,8 8 4 14 8 S 1021,5 5 0,0
25.01.2020 13:00:00 2,0 0,5 2,7 5 3 14 8 S 1022,0 6 0,0
25.01.2020 12:00:00 1,4 0,0 2,0 8 4 11 6 SSE 1022,6 3,6 0,0
25.01.2020 11:00:00 0,7 -0,1 1,1 8 4 14 8 SSE 1022,6 3,2 0,0
25.01.2020 10:00:00 0,4 -0,1 0,7 8 4 14 8 SSE 1022,2 2,4 0,0
25.01.2020 09:00:00 0,3 -0,4 0,4 9 5 14 8 SSE 1022,1 2,5 0,0
25.01.2020 08:00:00 0,5 -0,1 0,6 9 5 14 8 S 1022,0 2,6 0,0
25.01.2020 07:00:00 0,8 0,5 1,0 8 4 14 8 SSE 1021,8 2,4 0,0
25.01.2020 06:00:00 1,0 0,8 1,2 8 4 14 8 SSE 1021,7 1,5 0,0
25.01.2020 05:00:00 1,1 1,0 1,3 5 3 11 6 SW 1021,9 1,7 0,0
25.01.2020 04:00:00 1,4 1,1 1,6 5 3 7 4 SW 1022,1 1,4 0,0
25.01.2020 03:00:00 1,5 1,2 1,7 5 3 11 6 S 1022,6 1,7 0,0
25.01.2020 02:00:00 1,6 1,3 1,8 4 2 11 6 SSW 1022,7 2,3 0,0
25.01.2020 01:00:00 1,6 1,2 1,8 5 3 11 6 SSW 1023,0 1,7 0,0
25.01.2020 00:00:00 1,8 1,1 2,0 4 2 11 6 - 1023,2 2,9 0,0
24.01.2020 23:00:00 2,0 1,1 2,0 5 3 11 6 S 1023,1 4,6 0,0
24.01.2020 22:00:00 1,9 1,2 1,9 8 4 14 8 SSE 1023,3 4,0 0,0
24.01.2020 21:00:00 1,9 1,2 2,0 4 2 11 6 ESE 1023,5 3,2 0,0
24.01.2020 20:00:00 2,0 1,3 2,1 4 2 11 6 - 1023,5 4,1 0,0
24.01.2020 19:00:00 2,1 1,4 2,2 5 3 11 6 S 1023,3 4,2 0,0
24.01.2020 18:00:00 2,0 1,6 2,1 8 4 14 8 S 1022,8 3,0 0,0
24.01.2020 17:00:00 1,9 1,2 2,2 5 3 14 8 SSW 1022,8 3,1 0,0
24.01.2020 16:00:00 1,9 1,3 2,3 8 4 14 8 S 1022,5 2,0 0,0
24.01.2020 15:00:00 2,1 1,6 2,6 8 4 14 8 S 1023,1 2,7 0,0
24.01.2020 14:00:00 2,1 1,5 2,6 4 2 11 6 - 1023,7 3,2 0,0
24.01.2020 13:00:00 2,1 1,6 2,5 5 3 7 4 S 1024,0 5 0,0
24.01.2020 12:00:00 1,8 1,4 2,1 4 2 11 6 - 1024,6 2,5 0,0
24.01.2020 11:00:00 1,6 1,3 1,9 8 4 14 8 WSW 1024,6 2,3 0,0
24.01.2020 10:00:00 1,4 1,3 1,7 11 6 14 8 WSW 1024,4 2,1 0,0
24.01.2020 09:00:00 1,4 1,3 1,6 9 5 14 8 SW 1024,3 0,9 0,0
24.01.2020 08:00:00 1,6 1,5 1,8 8 4 14 8 SSW 1024,0 1,1 0,0
24.01.2020 07:00:00 1,8 1,7 2,0 5 3 11 6 S 1023,9 1,4 0,0
24.01.2020 06:00:00 1,8 1,8 2,0 8 4 11 6 SSE 1023,8 0,8 0,0
24.01.2020 05:00:00 1,8 1,6 2,0 5 3 7 4 SSE 1024,2 0,9 0,0
24.01.2020 04:00:00 1,9 1,7 2,1 4 2 7 4 - 1024,9 0,7 0,0
24.01.2020 03:00:00 1,7 1,7 2,0 2 1 7 4 - 1025,4 0,8 0,0
24.01.2020 02:00:00 1,8 1,8 2,1 4 2 11 6 - 1026,0 0,5 0,0
24.01.2020 01:00:00 1,9 1,7 2,2 5 3 11 6 SSE 1026,3 0,8 0,0
24.01.2020 00:00:00 2,4 2,1 2,5 5 3 14 8 E 1026,5 2,1 0,0
23.01.2020 23:00:00 2,8 1,9 2,9 5 3 14 8 E 1027,0 3,3 0,0
23.01.2020 22:00:00 3,0 1,8 3,1 9 5 14 8 ENE 1027,1 4,7 0,0
23.01.2020 21:00:00 3,1 1,3 3,1 11 6 18 10 ENE 1027,3 7 0,0
23.01.2020 20:00:00 3,4 1,1 3,4 9 5 18 10 E 1027,7 9 0,0
23.01.2020 19:00:00 3,8 1,4 3,7 8 4 14 8 E 1028,0 9 0,0
23.01.2020 18:00:00 4,3 1,7 4,3 8 4 14 8 E 1028,3 9 0,0
23.01.2020 17:00:00 4,7 1,5 4,6 8 4 22 12 E 1028,6 9 0,0
23.01.2020 16:00:00 5,2 1,8 5,3 9 5 18 10 E 1029,2 10 0,0
23.01.2020 15:00:00 5,5 1,7 5,6 13 7 22 12 E 1029,9 10 0,0
23.01.2020 14:00:00 5,9 1,9 6,4 15 8 22 12 ENE 1030,7 10 0,0
23.01.2020 13:00:00 6,2 3,5 7,4 15 8 22 12 ENE 1031,4 10 0,0
23.01.2020 12:00:00 5,1 3,8 5,8 9 5 14 8 E 1032,5 5 0,0
23.01.2020 11:00:00 4,7 3,8 5,2 8 4 11 6 E 1033,1 4,5 0,0
23.01.2020 10:00:00 4,6 4,1 4,8 8 4 11 6 ENE 1033,3 2,9 0,0
23.01.2020 09:00:00 4,5 4,5 4,7 5 3 7 4 E 1033,4 0,3 0,0
23.01.2020 08:00:00 4,4 4,4 4,5 4 2 7 4 E 1033,5 2,2 0,0
23.01.2020 07:00:00 4,3 4,2 4,2 8 4 7 4 ENE 1033,6 2,0 0,0
23.01.2020 06:00:00 4,2 4,1 4,2 5 3 11 6 NE 1033,9 2,2 0,0
23.01.2020 05:00:00 4,3 4,2 4,3 8 4 11 6 ENE 1034,3 1,5 0,0
23.01.2020 04:00:00 4,5 4,5 4,4 4 2 7 4 ENE 1034,9 2,2 0,0
23.01.2020 03:00:00 4,4 4,4 4,5 5 3 7 4 ENE 1035,7 1,7 0,0
23.01.2020 02:00:00 4,5 4,3 4,5 2 1 7 4 - 1035,9 1,7 0,0
23.01.2020 01:00:00 4,5 4,5 4,5 0 0 4 2 N 1036,3 1,6 0,0
23.01.2020 00:00:00 4,5 4,5 4,5 2 1 4 2 SSE 1036,6 1,4 0,0
22.01.2020 23:00:00 4,7 4,7 4,7 2 1 4 2 S 1036,9 2,1 0,0
22.01.2020 22:00:00 4,6 4,5 4,7 2 1 4 2 SE 1037,0 0,8 0,0
22.01.2020 21:00:00 4,5 4,5 4,7 2 1 4 2 W 1037,0 0,3 0,0
22.01.2020 20:00:00 4,5 4,5 4,6 2 1 4 2 W 1036,9 0,3 0,0
22.01.2020 19:00:00 4,4 4,4 4,5 4 2 7 4 W 1036,8 0,7 0,0
22.01.2020 18:00:00 4,3 4,2 4,5 4 2 7 4 W 1036,6 1,4 0,0
22.01.2020 17:00:00 4,3 4,2 4,4 4 2 7 4 - 1036,5 0,7 0,0
22.01.2020 16:00:00 4,3 4,0 4,5 5 3 7 4 W 1036,7 1,6 0,0
22.01.2020 15:00:00 4,0 3,8 4,3 9 5 11 6 W 1036,6 1,8 0,0
22.01.2020 14:00:00 3,8 3,4 4,3 8 4 11 6 WSW 1036,6 1,7 0,0
22.01.2020 13:00:00 3,5 3,3 4,1 5 3 11 6 W 1037,2 1,1 0,0
22.01.2020 12:00:00 3,0 2,8 3,6 5 3 11 6 WSW 1037,7 1,2 0,0
22.01.2020 11:00:00 2,5 2,2 3,0 5 3 7 4 W 1037,8 1,9 0,0
22.01.2020 10:00:00 1,9 1,7 2,1 5 3 7 4 WSW 1037,4 1,3 0,0
22.01.2020 09:00:00 1,4 1,4 1,7 5 3 11 6 SW 1037,6 0,9 0,0
22.01.2020 08:00:00 1,4 1,4 1,6 5 3 11 6 SW 1037,0 0,4 0,0
22.01.2020 07:00:00 1,6 1,6 1,7 5 3 11 6 SW 1037,1 0,3 0,0

tt = temperature
td = dewpoint
tt 5cm = temperature 5cm
ff = wind speed
fx = gusts
dd = wind direction
ppp = reduced air pressure
vv = visibility
rr = precipitation

Next stations